San Carlos, CA

6:53 PM PST on February 18, 2018 (GMT -0800)
San Carlos

Weather History for KSQL - December, 2013

Change the Weather History Date:

Wednesday, December 11, 2013

  Actual Average Record
Temperature  
Mean Temperature 44 °F -  
Max Temperature 55 °F 58 °F 72 °F (1958)
Min Temperature 33 °F 39 °F 24 °F (1972)
Degree Days  
Heating Degree Days 21    
Moisture  
Dew Point 31 °F    
Average Humidity 67    
Maximum Humidity 87    
Minimum Humidity 33    
Precipitation  
Precipitation 0.00 in - - ()
Sea Level Pressure  
Sea Level Pressure 30.22 in    
Wind  
Wind Speed 1 mph (SSE)    
Max Wind Speed 6 mph    
Max Gust Speed -    
Visibility 10 miles    
Events      
Averages and records for this station are not official NWS values.
T = Trace of Precipitation, MM = Missing Value Source: NWS Daily Summary

Daily Weather History Graph

Daily Weather History Graph

Search for Another Location

Airport or City:

Trip Planner

Search our weather history database for the weather conditions in past years. The results will help you decide how hot, cold, wet, or windy it might be!

Date:

Astronomy

Dec. 11, 2013 Rise Set
Actual Time 7:13 AM PST 4:51 PM PST
Civil Twilight 6:44 AM PST 5:20 PM PST
Nautical Twilight 6:11 AM PST 5:52 PM PST
Astronomical Twilight 5:40 AM PST 6:24 PM PST
Moon 1:22 PM PST (12/11) 1:46 AM PST (12/11)
Length of Visible Light 10h 35m
Length of Day
9h 37m
Waxing Gibbous, 72% of the Moon is Illuminated
Dec 11
Waxing Gibbous
Dec 17
Full
Dec 25
Last Quarter
Jan 1
New
Jan 7
First Quarter

Hourly Weather History & Observations

Time (PST) Temp. Windchill Dew Point Humidity Pressure Visibility Wind Dir Wind Speed Gust Speed Precip Events Conditions
12:15 AM 37.4 °F - 28.4 °F 70% 30.23 in 10.0 mi Calm Calm - N/A   Clear
12:35 AM 37.4 °F - 28.4 °F 70% 30.23 in 10.0 mi Calm Calm - N/A   Clear
12:55 AM 37.4 °F - 28.4 °F 70% 30.22 in 10.0 mi Calm Calm - N/A   Clear
1:15 AM 37.4 °F - 28.4 °F 70% 30.22 in 10.0 mi Calm Calm - N/A   Clear
1:35 AM 37.4 °F - 30.2 °F 75% 30.22 in 10.0 mi Calm Calm - N/A   Clear
1:55 AM 37.4 °F - 30.2 °F 75% 30.22 in 10.0 mi Calm Calm - N/A   Clear
2:15 AM 39.2 °F - 32.0 °F 75% 30.22 in 10.0 mi Calm Calm - N/A   Clear
2:35 AM 37.4 °F - 32.0 °F 81% 30.22 in 10.0 mi Calm Calm - N/A   Clear
2:55 AM 37.4 °F - 30.2 °F 75% 30.22 in 10.0 mi Calm Calm - N/A   Clear
3:15 AM 37.4 °F 34.9 °F 32.0 °F 81% 30.22 in 10.0 mi SE 3.5 mph - N/A   Clear
3:35 AM 35.6 °F - 30.2 °F 81% 30.22 in 10.0 mi Calm Calm - N/A   Clear
3:55 AM 37.4 °F - 30.2 °F 75% 30.22 in 10.0 mi Calm Calm - N/A   Clear
4:15 AM 37.4 °F - 32.0 °F 81% 30.21 in 10.0 mi Calm Calm - N/A   Clear
4:35 AM 33.8 °F - 30.2 °F 87% 30.21 in 10.0 mi Calm Calm - N/A   Clear
4:55 AM 35.6 °F - 30.2 °F 81% 30.21 in 10.0 mi Calm Calm - N/A   Clear
6:00 AM 35.6 °F - 30.2 °F 81% 30.21 in 10.0 mi Calm Calm - N/A   Clear
6:15 AM 35.6 °F - 30.2 °F 81% 30.21 in 10.0 mi Calm Calm - N/A   Clear
6:35 AM 35.6 °F - 30.2 °F 81% 30.21 in 10.0 mi Calm Calm - N/A   Clear
6:51 AM 35.6 °F - 30.2 °F 81% 30.22 in 10.0 mi Calm Calm - N/A   Clear
6:55 AM 35.6 °F - 30.2 °F 81% 30.22 in 10.0 mi Calm Calm - N/A   Clear
7:47 AM 35.6 °F - 32.0 °F 87% 30.24 in 10.0 mi Calm Calm - N/A   Clear
8:49 AM 41.0 °F - 33.8 °F 76% 30.25 in 10.0 mi Calm Calm - N/A   Clear
9:48 AM 44.6 °F 41.4 °F 28.4 °F 53% 30.26 in 10.0 mi SSE 5.8 mph - N/A   Clear
10:49 AM 48.2 °F - 30.2 °F 50% 30.25 in 10.0 mi ESE 3.5 mph - N/A   Clear
11:48 AM 50.0 °F - 32.0 °F 50% 30.25 in 10.0 mi East 3.5 mph - N/A   Clear
12:51 PM 51.8 °F - 24.8 °F 35% 30.21 in 8.0 mi Calm Calm - N/A   Clear
1:48 PM 53.6 °F - 26.6 °F 35% 30.20 in 9.0 mi Calm Calm - N/A   Clear
2:47 PM 55.4 °F - 26.6 °F 33% 30.19 in 10.0 mi Calm Calm - N/A   Clear
3:47 PM 55.4 °F - 28.4 °F 36% 30.19 in 10.0 mi Calm Calm - N/A   Clear
4:53 PM 51.8 °F - 35.6 °F 54% 30.19 in 10.0 mi Calm Calm - N/A   Clear
5:50 PM 48.2 °F - 30.2 °F 50% 30.19 in 10.0 mi Calm Calm - N/A   Clear
6:51 PM 46.4 °F 45.2 °F 30.2 °F 53% 30.20 in 10.0 mi Variable 3.5 mph - N/A   Clear
7:51 PM 44.6 °F - 32.0 °F 61% 30.21 in 10.0 mi Calm Calm - N/A   Clear
8:50 PM 42.8 °F - 32.0 °F 66% 30.21 in 10.0 mi Calm Calm - N/A   Clear
9:15 PM 41.0 °F 39.0 °F 32.0 °F 70% 30.22 in 10.0 mi South 3.5 mph - N/A   Clear
9:35 PM 44.6 °F 43.1 °F 32.0 °F 61% 30.22 in 10.0 mi SSW 3.5 mph - N/A   Clear
9:55 PM 44.6 °F 43.1 °F 32.0 °F 61% 30.21 in 10.0 mi South 3.5 mph - N/A   Clear
10:15 PM 44.6 °F 43.1 °F 32.0 °F 61% 30.22 in 10.0 mi South 3.5 mph - N/A   Clear
10:35 PM 41.0 °F - 32.0 °F 70% 30.22 in 10.0 mi Calm Calm - N/A   Clear
10:55 PM 41.0 °F - 32.0 °F 70% 30.22 in 10.0 mi Calm Calm - N/A   Clear
11:15 PM 41.0 °F - 32.0 °F 70% 30.22 in 10.0 mi Calm Calm - N/A   Clear
11:35 PM 41.0 °F - 32.0 °F 70% 30.22 in 9.0 mi Calm Calm - N/A   Clear
11:55 PM 41.0 °F - 32.0 °F 70% 30.22 in 9.0 mi Calm Calm - N/A   Clear